Charlevoix, MI

3:56 AM EDT on March 26, 2017 (GMT -0400)
Charlevoix Municipal

Weather History for KCVX - December, 2010

Change the Weather History Date:

Sunday, December 5, 2010

  Actual Average Record
Temperature  
Mean Temperature 27 °F -  
Max Temperature 28 °F 39 °F 64 °F (2001)
Min Temperature 26 °F 30 °F 17 °F (2005)
Degree Days  
Heating Degree Days 38    
Moisture  
Dew Point 18 °F    
Average Humidity 70    
Maximum Humidity 80    
Minimum Humidity 64    
Precipitation  
Precipitation 0.00 in - - ()
Sea Level Pressure  
Sea Level Pressure 30.10 in    
Wind  
Wind Speed 18 mph (NNW)    
Max Wind Speed 25 mph    
Max Gust Speed 36 mph    
Visibility 8 miles    
Events Snow    
Averages and records for this station are not official NWS values.
T = Trace of Precipitation, MM = Missing Value Source: NWS Daily Summary

Daily Weather History Graph

Daily Weather History Graph

Search for Another Location

Airport or City:

Trip Planner

Search our weather history database for the weather conditions in past years. The results will help you decide how hot, cold, wet, or windy it might be!

Date:

Astronomy

Dec. 05, 2010 Rise Set
Actual Time 8:04 AM EST 4:58 PM EST
Civil Twilight 7:30 AM EST 5:32 PM EST
Nautical Twilight 6:53 AM EST 6:09 PM EST
Astronomical Twilight 6:18 AM EST 6:45 PM EST
Moon 8:08 AM EST (12/5) 4:51 PM EST (12/5)
Length of Visible Light 10h 01m
Length of Day
8h 54m
Waning Crescent, 0% of the Moon is Illuminated
Dec 5
Waning Crescent
Dec 5
New
Dec 13
First Quarter
Dec 21
Full
Dec 27
Last Quarter

Hourly Weather History & Observations

Time (EST) Temp. Windchill Dew Point Humidity Pressure Visibility Wind Dir Wind Speed Gust Speed Precip Events Conditions
12:14 AM 28.4 °F 17.0 °F 17.6 °F 64% 30.12 in 10.0 mi NNW 15.0 mph - N/A   Overcast
12:35 AM 28.4 °F 15.8 °F 17.6 °F 64% 30.12 in 10.0 mi North 18.4 mph 25.3 mph N/A   Overcast
12:54 AM 28.4 °F 16.2 °F 17.6 °F 64% 30.12 in 10.0 mi North 17.3 mph 23.0 mph N/A   Overcast
1:15 AM 28.4 °F 17.5 °F 17.6 °F 64% 30.12 in 10.0 mi NNW 13.8 mph 24.2 mph N/A   Overcast
1:35 AM 28.4 °F 15.8 °F 17.6 °F 64% 30.12 in 10.0 mi NNW 18.4 mph 27.6 mph N/A   Overcast
1:55 AM 28.4 °F 16.2 °F 17.6 °F 64% 30.12 in 10.0 mi NNW 17.3 mph 26.5 mph N/A   Overcast
2:15 AM 28.4 °F 15.8 °F 19.4 °F 69% 30.12 in 7.0 mi North 18.4 mph 28.8 mph N/A   Overcast
2:35 AM 26.6 °F 13.8 °F 19.4 °F 74% 30.12 in 10.0 mi North 17.3 mph 25.3 mph N/A   Overcast
2:55 AM 26.6 °F 15.2 °F 19.4 °F 74% 30.12 in 10.0 mi North 13.8 mph 24.2 mph N/A   Overcast
3:15 AM 26.6 °F 14.3 °F 19.4 °F 74% 30.12 in 10.0 mi North 16.1 mph 26.5 mph N/A   Overcast
3:35 AM 26.6 °F 13.8 °F 19.4 °F 74% 30.12 in 7.0 mi North 17.3 mph 24.2 mph N/A   Overcast
3:54 AM 26.6 °F 13.4 °F 19.4 °F 74% 30.13 in 7.0 mi NNW 18.4 mph 26.5 mph N/A Snow Light Snow
4:15 AM 26.6 °F 13.8 °F 19.4 °F 74% 30.13 in 5.0 mi NNW 17.3 mph 29.9 mph N/A Snow Light Snow
4:35 AM 26.6 °F 13.1 °F 17.6 °F 69% 30.12 in 10.0 mi North 19.6 mph 31.1 mph N/A   Overcast
4:55 AM 26.6 °F 12.7 °F 17.6 °F 69% 30.12 in 10.0 mi NNW 20.7 mph 27.6 mph N/A   Overcast
5:15 AM 26.6 °F 13.1 °F 17.6 °F 69% 30.13 in 7.0 mi NNW 19.6 mph 29.9 mph N/A   Overcast
5:55 AM 26.6 °F 12.0 °F 17.6 °F 69% 30.13 in 3.0 mi NNW 23.0 mph 31.1 mph N/A Snow Light Snow
6:14 AM 26.6 °F 12.4 °F 15.8 °F 64% 30.12 in 7.0 mi NNW 21.9 mph 27.6 mph N/A   Overcast
6:35 AM 26.6 °F 12.4 °F 17.6 °F 69% 30.12 in 10.0 mi NNW 21.9 mph 29.9 mph N/A   Overcast
6:55 AM 26.6 °F 13.8 °F 17.6 °F 69% 30.12 in 7.0 mi North 17.3 mph 29.9 mph N/A Snow Light Snow
7:15 AM 26.6 °F 13.8 °F 17.6 °F 69% 30.12 in 7.0 mi North 17.3 mph 25.3 mph N/A   Overcast
7:35 AM 26.6 °F 14.3 °F 17.6 °F 69% 30.12 in 7.0 mi North 16.1 mph 25.3 mph N/A   Overcast
7:55 AM 26.6 °F 14.3 °F 17.6 °F 69% 30.12 in 4.0 mi NNW 16.1 mph 25.3 mph N/A Snow Light Snow
8:15 AM 26.6 °F 13.4 °F 17.6 °F 69% 30.12 in 3.0 mi NW 18.4 mph 25.3 mph N/A Snow Light Snow
8:35 AM 26.6 °F 14.7 °F 17.6 °F 69% 30.12 in 3.0 mi North 15.0 mph 25.3 mph N/A Snow Light Snow
8:55 AM 26.6 °F 15.7 °F 19.4 °F 74% 30.12 in 7.0 mi NNW 12.7 mph 24.2 mph N/A Snow Light Snow
9:14 AM 26.6 °F 13.1 °F 19.4 °F 74% 30.12 in 7.0 mi NW 19.6 mph 26.5 mph N/A   Overcast
9:35 AM 26.6 °F 13.4 °F 21.2 °F 80% 30.12 in 4.0 mi NW 18.4 mph 26.5 mph N/A Snow Light Snow
9:55 AM 26.6 °F 13.4 °F 19.4 °F 74% 30.12 in 5.0 mi NW 18.4 mph 28.8 mph N/A Snow Light Snow
10:15 AM 26.6 °F 14.7 °F 19.4 °F 74% 30.12 in 7.0 mi NW 15.0 mph 26.5 mph N/A   Overcast
10:35 AM 26.6 °F 13.4 °F 19.4 °F 74% 30.12 in 7.0 mi NW 18.4 mph 27.6 mph N/A   Overcast
11:55 AM 26.6 °F 13.4 °F 21.2 °F 80% 30.10 in 2.5 mi North 18.4 mph 25.3 mph N/A Snow Light Snow
7:15 PM 26.6 °F 12.7 °F 17.6 °F 69% 30.09 in 7.0 mi NW 20.7 mph 34.5 mph N/A   Overcast
7:34 PM 26.6 °F 11.4 °F 17.6 °F 69% 30.09 in 7.0 mi NW 25.3 mph 33.4 mph N/A   Overcast
7:55 PM 26.6 °F 11.4 °F 17.6 °F 69% 30.09 in 5.0 mi NW 25.3 mph 32.2 mph N/A   Haze
8:15 PM 26.6 °F 12.7 °F 17.6 °F 69% 30.09 in 10.0 mi NW 20.7 mph 31.1 mph N/A   Overcast
9:15 PM 26.6 °F 13.1 °F 17.6 °F 69% 30.07 in 7.0 mi NW 19.6 mph 33.4 mph N/A   Overcast
9:35 PM 26.6 °F 11.4 °F 17.6 °F 69% 30.06 in 10.0 mi NNW 25.3 mph 31.1 mph N/A   Overcast
9:55 PM 26.6 °F 12.7 °F 17.6 °F 69% 30.06 in 10.0 mi NW 20.7 mph 32.2 mph N/A   Overcast
10:15 PM 26.6 °F 13.1 °F 17.6 °F 69% 30.05 in 7.0 mi NNW 19.6 mph 31.1 mph N/A   Overcast
10:35 PM 26.6 °F 12.7 °F 17.6 °F 69% 30.05 in 10.0 mi NNW 20.7 mph 31.1 mph N/A   Overcast
10:55 PM 26.6 °F 13.8 °F 17.6 °F 69% 30.05 in 10.0 mi NNW 17.3 mph 29.9 mph N/A   Overcast
11:15 PM 26.6 °F 12.7 °F 17.6 °F 69% 30.05 in 7.0 mi NW 20.7 mph 27.6 mph N/A Snow Light Snow
11:35 PM 26.6 °F 13.1 °F 17.6 °F 69% 30.05 in 7.0 mi NW 19.6 mph 31.1 mph N/A   Overcast
11:55 PM 26.6 °F 12.4 °F 17.6 °F 69% 30.05 in 5.0 mi NNW 21.9 mph 35.7 mph N/A   Haze